Meteo Giornale » Osservazioni meteo Italia » Messina

ore: 02:55 - Osservazioni Meteo Messina
Lat. 38° 12' N Lon. 15° 33' E Alt. 59 metri s.l.m.

nuvoloso Europe/Rome

14 °C

Nuvoloso

Temp. 24 Ore

14 °C

17 °C

Nord/Nord-Est

11.1 Km/h

Dew point 11 °C

Umidità 82 %

Visibilità  10 Km

Il sole sorge alle ore 06:42

Il sole tramonta alle ore 16:44

Data e Ora Cielo e Fenomeni T °C DP °C Um. % Pres. hPa Vis. km Vento km/h
Oggi h: 02:55 nuvoloso Nuvoloso 14 11 82 1013 10 N/NE 11.1
Oggi h: 01:55 coperto_pioggia Pioggia Debole 14 10 76 1013 10 O/NO 13
Oggi h: 00:55 nuvoloso Nuvoloso 14 10 76 1013 10 N 9.3
Ieri h: 23:55 nuvoloso Nuvoloso 15 12 82 1014 10 O 7.4
Ieri h: 22:55 coperto_pioggia Pioggia 15 10 72 1014 8 NO 16.7
Ieri h: 21:55 nuvoloso Nuvoloso 15 11 76 1013 10 NO 13
Ieri h: 20:55 nuvoloso Nuvoloso 15 11 76 1013 10 O/NO 18.5
Ieri h: 19:55 coperto_pioggia Pioggia Debole 15 12 82 1013 8 O/NO 18.5
Ieri h: 18:55 nuvoloso Nuvoloso 15 12 82 1012 10 N 9.3
Ieri h: 17:55 nuvoloso Nuvoloso 16 11 72 1012 10 N/NE 11.1
Ieri h: 16:55 nuvoloso Nuvoloso 16 11 72 1012 10 N 9.3
Ieri h: 15:55 nuvoloso Nuvoloso 17 10 63 1012 10 N 11.1
Ieri h: 14:55 nuvoloso Nuvoloso 17 10 63 1012 10 N 14.8
Ieri h: 13:55 molto_nuvoloso Molto Nuvoloso 17 10 63 1012 10 N/NO 18.5
Ieri h: 12:55 nuvoloso Nuvoloso 17 9 59 1012 10 N 22.2
Ieri h: 11:55 nuvoloso Nuvoloso 17 9 59 1012 10 N 18.5
Ieri h: 10:55 nuvoloso Nuvoloso 17 9 59 1012 10 N 16.7
Ieri h: 09:55 nuvoloso Nuvoloso 17 9 59 1012 10 N 14.8
Ieri h: 06:55 nuvoloso Nuvoloso 15 11 76 1011 10 NO 13
Ieri h: 05:55 nuvoloso Nuvoloso 15 11 76 1011 10 N 11.1
Ieri h: 04:55 molto_nuvoloso Molto Nuvoloso 15 11 76 1011 10 NO 14.8
Ieri h: 03:55 nuvoloso Nuvoloso 15 10 72 1011 10 NO 16.7